DMSP 5D-3 F18 (USA 210)

Last updated on Tue Jan 14 2025 00:02:17 GMT+0000 (Coordinated Universal Time)

1 35951U 09057A 25013.52104087 .00000408 00000+0 23565-3 0 9997 2 35951 98.8418 352.3753 0010190 291.1851 68.8233 14.14465320786112
UTC large
Height (km)
Speed (km/s)
/
Latitude / Longitude
Inclination (degrees)
Orbital Period (minutes)
Azimuth
Elevation
Range (km)
Doppler Factor

Next 0 passes for location: London (51.5072 / 0.1276)

Sorry there are no passes over London.